Location: Unspecified
(0.0000°N, 0.0000°E)
Time: 14:35:47
(UTC+00:00)

S-56A Canister/Altair - Visible Passes

Search period start: 25 April 2018 00:00
Search period end: 05 May 2018 00:00
Orbit: 632 x 2501 km, 38.9° (Epoch: 24 April)

Date Brightness Start Highest point End Pass type
(mag) Time Alt. Az. Time Alt. Az. Time Alt. Az.
25 Apr 11.3 01:03:10 17° NE 01:03:10 17° NE 01:05:25 10° NE visible
25 Apr 10.7 03:00:35 26° NNW 03:00:35 26° NNW 03:10:38 10° NNE visible
26 Apr 10.8 02:29:31 26° N 02:29:31 26° N 02:37:21 10° NNE visible
27 Apr 11.0 01:58:24 23° N 01:58:24 23° N 02:04:02 10° NNE visible
27 Apr 11.3 03:59:46 10° NNW 04:02:20 11° NNW 04:05:00 10° N visible
28 Apr 11.2 01:27:15 18° NNE 01:27:15 18° NNE 01:30:40 10° NNE visible
28 Apr 11.3 03:24:44 10° NW 03:28:34 12° NNW 03:32:39 10° N visible
29 Apr 11.4 00:56:03 13° NNE 00:56:03 13° NNE 00:57:18 10° NNE visible
29 Apr 11.2 02:53:27 12° NNW 02:54:53 13° NNW 02:59:52 10° N visible
30 Apr 11.2 02:22:12 14° NNW 02:22:12 14° NNW 02:26:54 10° N visible
01 May 11.3 01:50:57 13° N 01:50:57 13° N 01:53:51 10° N visible
02 May 11.4 01:19:38 12° N 01:19:38 12° N 01:20:46 10° N visible
